Location: ???????
(55.3754°N, 39.3545°E)
Time: 02:29:29
(UTC+00:00)

Spot 2 Rocket - Pass Details

Date: 14 April 2026
Orbit: 752 x 766 km, 98.3° (Epoch: 20 May)

Event Time Altitude Azimuth Distance (km) Brightness Sun altitude
Exits shadow 17:56:27 11° 163° (SSE) 2,237 5.4 -12.2°
Maximum altitude 18:01:22 88° 254° (WSW) 764 3.5 -12.7°
Drops below altitude 10° 18:06:26 10° 344° (NNW) 2,291 6.9 -13.3°
Sets 18:08:44 0° 345° (NNW) 3,220 7.7 -13.5°
